Flag for India Weather past 2 weeks in Mumbai, Maharashtra, India

Now
88 °F

Passing clouds.


Feels Like: 108 °F
Forecast: 86 / 91 °F
Wind: 8 mph from Northwest

Location: Bombay / Santacruz

Current Time: May 30, 2015 at 10:36:39 PM

Latest Report: May 30, 2015 at 9:40 PM


Visibility: 2 mi

Pressure: 29.71 "Hg

Humidity: 84%

Dew point: 82 °F

Location of MumbaiLocation

Historic Weather in Mumbai — Graph

°F

Mumbai temperature yesterday

Maximum temperature yesterday: 93 °F (at 10:40 AM)
Minimum temperature yesterday: 86 °F (at 2:40 AM)
Average temperature yesterday: 89 °F

Past Weeks' High & Low Weather Summary

 TemperatureHumidityPressure
High93 °F (May 16, 1:40 PM)89% (May 16, 12:40 AM)29.86 "Hg (May 16, 12:40 AM)
Low86 °F (May 15, 11:40 PM)56% (May 21, 1:10 PM)29.62 "Hg (May 16, 3:40 PM)
Average89 °F73%29.75 "Hg
* Reported May 15 8:40 PM — May 30 9:10 PM, Mumbai, Weather by CustomWeather, © 2015

Note: Actual official high and low records may vary slightly from our data, if they occured in-between our weather recording intervals... More about our weather records

Advertising

Mumbai weather history for previous 24 hours

 ConditionsComfort  
Time TempWeatherWind HumidityBarometerVisibility
9:10 PM
Sat, May 30
88 °FPassing clouds.6 mph84%29.71 "Hg2 mi
8:40 PM88 °FPassing clouds.7 mph79%29.71 "Hg2 mi
8:10 PM90 °FPassing clouds.7 mph75%29.71 "Hg3 mi
7:40 PM90 °FScattered clouds.6 mph75%29.71 "Hg3 mi
7:10 PM90 °FScattered clouds.7 mph75%29.71 "Hg3 mi
6:40 PM90 °FScattered clouds.8 mph75%29.68 "Hg3 mi
6:10 PM90 °FScattered clouds.8 mph75%29.68 "Hg3 mi
5:40 PM91 °FScattered clouds.12 mph71%29.68 "Hg3 mi
5:10 PM91 °FScattered clouds.9 mph71%29.68 "Hg3 mi
4:40 PM90 °FBroken clouds.9 mph75%29.68 "Hg3 mi
4:10 PM90 °FBroken clouds.9 mph75%29.71 "Hg3 mi
3:40 PM90 °FBroken clouds.10 mph75%29.71 "Hg3 mi
3:10 PM90 °FBroken clouds.10 mph75%29.71 "Hg3 mi
2:40 PM91 °FBroken clouds.6 mph67%29.74 "Hg3 mi
2:10 PM91 °FBroken clouds.9 mph67%29.74 "Hg3 mi
1:40 PM91 °FBroken clouds.10 mph67%29.74 "Hg3 mi
12:40 PM91 °FBroken clouds.12 mph63%29.77 "Hg4 mi
12:10 PM91 °FScattered clouds.12 mph67%29.77 "Hg4 mi
11:40 AM93 °FScattered clouds.9 mph63%29.80 "Hg4 mi
11:10 AM93 °FScattered clouds.8 mph63%29.80 "Hg3 mi
10:40 AM91 °FScattered clouds.9 mph67%29.83 "Hg3 mi
10:10 AM91 °FScattered clouds.5 mph67%29.83 "Hg3 mi
9:10 AM90 °FScattered clouds.8 mph71%29.83 "Hg2 mi
8:40 AM90 °FScattered clouds.6 mph71%29.83 "Hg2 mi
8:10 AM88 °FScattered clouds.3 mph75%29.83 "Hg2 mi
7:40 AM88 °FScattered clouds.5 mph79%29.80 "Hg2 mi
7:10 AM88 °FScattered clouds.5 mph79%29.80 "Hg2 mi
6:40 AM88 °FScattered clouds.3 mph75%29.80 "Hg2 mi
6:10 AM88 °FPassing clouds.7 mph75%29.77 "Hg2 mi
5:40 AM88 °FPassing clouds.6 mph79%29.77 "Hg2 mi
5:10 AM88 °FPassing clouds.9 mph75%29.77 "Hg2 mi
4:40 AM88 °FPassing clouds.7 mph75%29.77 "Hg2 mi
4:10 AM88 °FPassing clouds.9 mph75%29.77 "Hg2 mi
3:40 AM88 °FPassing clouds.7 mph75%29.77 "Hg2 mi
3:10 AM88 °FPassing clouds.6 mph75%29.77 "Hg2 mi
2:40 AM88 °FPassing clouds.7 mph75%29.77 "Hg2 mi
2:10 AM88 °FPassing clouds.9 mph75%29.77 "Hg2 mi
1:40 AM88 °FPassing clouds.6 mph75%29.77 "Hg2 mi
1:10 AM88 °FPassing clouds.9 mph75%29.77 "Hg2 mi
12:40 AM88 °FPassing clouds.10 mph75%29.77 "Hg2 mi
12:10 AM88 °FPassing clouds.8 mph75%29.77 "Hg2 mi
11:10 PM
Fri, May 29
88 °FPassing clouds.9 mph75%29.80 "Hg2 mi
10:40 PM88 °FPassing clouds.8 mph75%29.77 "Hg2 mi
10:10 PM88 °FPassing clouds.10 mph75%29.80 "Hg2 mi
Weather by CustomWeather, © 2015

See weather overviewHow to use our weather pages